Tracking 29892 objects as of 21-Nov-2024
HD Live streaming from Space Station
objects crossing your sky now

COSMOS 886 DEB

Track COSMOS 886 DEB now!
10-day predictions


NORAD ID: 19112
Int'l Code: 1976-126BZ
Perigee: 493.1 km
Apogee: 1,886.0 km
Inclination: 65.8 °
Period: 109.0 minutes
Semi major axis: 7560 km
RCS: 0.0045 m2 (small)
Launch date: December 27, 1976
Source: Commonwealth of Independent States (former USSR) (CIS)
Launch site: TYURATAM MISSILE AND SPACE COMPLEX (TTMTR)

Note: This is SATELLITE DEBRIS
Your satellite tracking list
Your tracking list is empty




NASA's NSSDC Master Catalog

Two Line Element Set (TLE):
1 19112U 76126BZ  24325.80752684  .00006320  00000-0  14524-2 0  9991
2 19112  65.8258 255.3920 0921115 349.9154   8.4442 13.20601798484241
Source of the keplerian elements: AFSPC